Location: Ottawa
(45.4167°N, 75.7000°W)
Time: 22:58:34
(UTC-04:00)

Vanguard 2 - All Passes

Search period start: 15 August 2018 00:00
Search period end: 25 August 2018 00:00
Orbit: 554 x 2938 km, 32.9° (Epoch: 14 August)

Date Brightness Start Highest point End Pass type
(mag) Time Alt. Az. Time Alt. Az. Time Alt. Az.
15 Aug - 12:15:51 10° SSW 12:18:18 15° SSE 12:21:02 10° SE daylight
15 Aug - 14:22:16 10° SW 14:25:48 20° S 14:30:24 10° SE daylight
15 Aug - 16:30:44 10° SW 16:33:57 14° SSW 16:37:50 10° SSE daylight
16 Aug - 12:33:24 10° SSW 12:36:04 17° S 12:39:07 10° SE daylight
16 Aug - 14:40:25 10° SW 14:43:41 17° S 14:47:48 10° SSE daylight
17 Aug - 12:51:09 10° SW 12:53:52 17° S 12:57:00 10° SE daylight
17 Aug - 14:58:54 10° SW 15:01:34 14° S 15:04:46 10° SSE daylight
18 Aug - 11:02:33 10° SSW 11:04:18 12° S 11:06:04 10° SE daylight
18 Aug - 13:09:06 10° SW 13:11:42 16° S 13:14:40 10° SE daylight
18 Aug - 15:18:26 10° SSW 15:19:29 10° SSW 15:20:35 10° S daylight
19 Aug - 11:19:54 10° SSW 11:22:05 14° S 11:24:17 10° SE daylight
19 Aug - 13:27:18 10° SW 13:29:33 14° S 13:32:03 10° SSE daylight
20 Aug - 09:31:55 10° S 09:32:25 10° SSE 09:32:55 10° SSE daylight
20 Aug - 11:37:34 10° SW 11:39:53 15° S 11:42:14 10° SE daylight
20 Aug - 13:46:03 10° SSW 13:47:23 11° SSW 13:48:47 10° S daylight
21 Aug - 09:48:09 10° SSW 09:50:15 13° S 09:52:11 10° SE daylight
21 Aug - 11:55:29 10° SW 11:57:42 14° S 11:59:57 10° SSE daylight
22 Aug - 10:05:26 10° SSW 10:08:04 15° S 10:10:29 10° SE daylight
22 Aug - 12:13:40 10° SW 12:15:29 13° S 12:17:21 10° SSE daylight
23 Aug - 08:15:46 10° SSW 08:18:15 13° SSE 08:20:24 10° SE daylight
23 Aug - 10:23:03 10° SW 10:25:54 16° S 10:28:28 10° SE daylight
23 Aug - 12:32:38 10° SSW 12:33:17 10° SSW 12:33:55 10° S daylight
24 Aug - 08:32:34 10° SSW 08:36:08 16° S 08:39:03 10° SE daylight
24 Aug - 10:40:53 10° SW 10:43:43 16° S 10:46:15 10° SSE daylight
